Voltar ao catálogo

ONEWEB-0674

AtivoComunicaçõesPO
NORAD 55833·PAYLOAD·🇬🇧 United Kingdom

Lançado Mar 9, 2023 de Cape Canaveral Space Force Station

Loading…

Próximas Passagens (próximas 24 horas)

TLE

AtualizadoSource: CelesTrak SupGP

Época: Sep 14, 2026, 09:53 UTC

1 55833C 23029AP  26257.41199491  .00002031  00000+0  54859-2 0  2575
2 55833  87.8899 271.9193 0002348  93.3653  12.6707 13.14500728    18

Acompanhe ONEWEB-0674 em tempo real com AllMySat

Download on the App Store